K3CHZ Weather Reports


Display with metric or nautical units.
time (UTC)temp
F
wind
direction
speed
MPH
gust
MPH
rain 1hr
in
rain 24hr
in
rain mn
in
humidity
%
barometer
mb
20210622174504 65 288 5.0 6.0 0.02 0.79 0.26 99 1009.0
20210622174004 65 321 0.0 0.0 0.03 0.79 0.26 99 1007.5
20210622173005 65 321 0.0 3.0 0.03 0.78 0.25 99 1008.4
20210622171505 65 188 0.0 2.0 0.06 0.78 0.25 100 1007.6
20210622171006 65 266 0.0 3.0 0.08 0.78 0.25 100 1008.2
20210622170504 65 244 1.0 3.0 0.09 0.77 0.24 100 1008.4
20210622170004 65 237 2.0 3.0 0.12 0.77 0.24 99 1008.2
20210622165004 65 183 0.0 2.0 0.16 0.77 0.24 99 1007.8
20210622163005 65 340 0.0 2.0 0.16 0.75 0.22 99 1008.1
20210622162504 65 340 1.0 3.0 0.15 0.74 0.21 99 1008.2
20210622160504 65 340 0.0 2.0 0.10 0.68 0.15 99 1008.1
20210622155505 65 338 1.0 3.0 0.05 0.63 0.10 99 1008.6
20210622155004 64 338 1.0 2.0 0.03 0.61 0.08 99 1008.4
20210622154004 65 348 2.0 6.0 0.02 0.60 0.07 99 1008.1
20210622153504 65 154 1.0 6.0 0.01 0.59 0.06 99 1008.0
20210622151504 65 343 1.0 2.0 0.00 0.58 0.05 99 1008.1
20210622151005 65 342 0.0 3.0 0.00 0.58 0.05 99 1007.9
20210622150005 66 324 1.0 3.0 0.00 0.58 0.05 100 1007.7
20210622144504 66 325 1.0 6.0 0.00 0.58 0.05 100 1007.6
20210622143505 66 300 1.0 2.0 0.01 0.58 0.05 100 1007.4
20210622143005 66 300 0.0 3.0 0.01 0.58 0.05 100 1007.5
20210622135504 66 294 1.0 3.0 0.03 0.58 0.05 100 1007.1
20210622135004 66 336 1.0 2.0 0.03 0.58 0.05 100 1007.1
20210622134005 66 336 0.0 0.0 0.03 0.58 0.05 100 1006.9
20210622131506 67 336 1.0 3.0 0.03 0.57 0.04 100 1006.8
20210622125503 68 336 1.0 3.0 0.01 0.55 0.02 100 1006.6
20210622124504 69 337 2.0 6.0 0.01 0.55 0.02 100 1006.5
20210622124004 69 337 2.0 3.0 0.01 0.55 0.02 100 1006.5
20210622122004 70 274 0.0 0.0 0.01 0.54 0.01 100 1006.1
20210622121004 70 289 0.0 0.0 0.01 0.54 0.01 100 1006.1
20210622114504 69 289 0.0 0.0 0.01 0.54 0.01 100 1005.7
20210622114004 69 289 0.0 0.0 0.01 0.54 0.01 100 1005.8
20210622113505 69 289 0.0 0.0 0.01 0.54 0.01 100 1005.8
20210622112004 69 289 0.0 0.0 0.00 0.53 0.00 100 1005.7
20210622111004 69 289 0.0 0.0 0.00 0.53 0.00 100 1005.4
20210622110005 69 289 0.0 0.0 0.00 0.53 0.00 100 1005.2
20210622105503 69 289 0.0 0.0 0.00 0.53 0.00 100 1005.2
20210622105005 69 289 0.0 0.0 0.00 0.53 0.00 100 1005.0
20210622104504 69 289 0.0 0.0 0.00 0.53 0.00 100 1004.9
20210622103504 69 289 0.0 0.0 0.00 0.53 0.00 100 1004.6
20210622102504 69 289 0.0 0.0 0.00 0.53 0.00 100 1004.4
20210622101005 69 289 0.0 0.0 0.00 0.53 0.00 100 1004.3
20210622100004 69 289 0.0 0.0 0.00 0.53 0.00 100 1004.3
20210622094004 69 289 0.0 0.0 0.00 0.53 0.00 100 1004.0
20210622092504 69 289 0.0 0.0 0.00 0.53 0.00 100 1004.0
20210622092004 68 289 0.0 0.0 0.00 0.53 0.00 100 1004.1
20210622091005 68 289 0.0 0.0 0.00 0.53 0.00 100 1003.9
20210622090505 68 289 0.0 0.0 0.00 0.53 0.00 100 1003.9
20210622085504 68 289 0.0 0.0 0.00 0.53 0.00 100 1003.8
20210622085004 68 289 0.0 0.0 0.00 0.53 0.00 100 1004.0
20210622084504 68 289 0.0 0.0 0.00 0.53 0.00 100 1003.9
20210622084005 68 289 0.0 0.0 0.00 0.53 0.00 100 1003.8
20210622083005 68 289 0.0 0.0 0.00 0.53 0.00 100 1003.8
20210622082504 68 289 0.0 0.0 0.00 0.53 0.00 100 1003.8
20210622082007 68 289 0.0 0.0 0.00 0.53 0.00 100 1003.9
20210622081004 68 289 0.0 0.0 0.00 0.53 0.00 100 1004.0
20210622080504 69 289 0.0 0.0 0.00 0.53 0.00 100 1004.0
20210622075504 69 289 0.0 0.0 0.00 0.53 0.00 100 1003.7
20210622074504 69 289 0.0 0.0 0.00 0.53 0.00 100 1003.8
20210622074004 69 289 0.0 0.0 0.00 0.53 0.00 100 1003.7
20210622073504 69 289 0.0 0.0 0.00 0.53 0.00 100 1003.8
20210622073004 69 289 0.0 0.0 0.00 0.53 0.00 100 1003.8
20210622072504 69 289 0.0 0.0 0.00 0.53 0.00 100 1003.7
20210622070505 69 289 0.0 0.0 0.00 0.53 0.00 100 1003.7
20210622070005 69 289 0.0 0.0 0.00 0.53 0.00 100 1003.7
20210622065504 69 289 0.0 0.0 0.00 0.53 0.00 100 1003.7
20210622065004 69 289 0.0 0.0 0.00 0.53 0.00 100 1003.6
20210622064504 69 289 0.0 0.0 0.00 0.53 0.00 100 1003.6
20210622064004 69 289 0.0 0.0 0.00 0.53 0.00 100 1003.7
20210622063504 69 289 0.0 0.0 0.00 0.53 0.00 100 1003.7
20210622063005 69 289 0.0 0.0 0.00 0.53 0.00 100 1003.7
20210622061504 69 289 0.0 0.0 0.00 0.53 0.00 100 1003.6
20210622061005 69 289 0.0 0.0 0.00 0.53 0.00 100 1003.7
20210622060505 69 289 0.0 0.0 0.00 0.53 0.00 100 1003.8
20210622055005 69 289 0.0 0.0 0.00 0.53 0.00 100 1003.7
20210622054505 69 289 0.0 0.0 0.00 0.53 0.00 100 1003.7
20210622054005 69 289 0.0 0.0 0.00 0.53 0.00 100 1003.6
20210622053005 69 289 0.0 0.0 0.00 0.53 0.00 100 1003.4
20210622052505 69 289 0.0 0.0 0.00 0.53 0.00 100 1003.6
20210622052004 69 289 0.0 0.0 0.00 0.53 0.00 100 1003.6
20210622051005 69 289 0.0 0.0 0.00 0.53 0.00 100 1003.8
20210622050506 69 289 0.0 0.0 0.00 0.53 0.00 100 1003.8
20210622050005 69 289 0.0 0.0 0.00 0.53 0.00 100 1003.8
20210622045504 69 289 0.0 0.0 0.00 0.53 0.00 99 1003.7
20210622045004 69 289 0.0 0.0 0.00 0.53 0.00 99 1003.9
20210622044004 69 289 0.0 0.0 0.00 0.53 0.00 100 1003.9
20210622042503 69 289 0.0 0.0 0.00 0.53 0.00 100 1003.9
20210622042004 69 289 0.0 0.0 0.00 0.53 0.00 100 1003.8
20210622035004 69 289 0.0 0.0 0.00 0.53 0.53 100 1004.0
20210622033504 69 289 0.0 0.0 0.00 0.53 0.53 100 1004.3
20210622032504 69 289 0.0 0.0 0.02 0.53 0.53 100 1004.5
20210622032004 69 289 0.0 0.0 0.08 0.53 0.53 100 1004.5
20210622031004 69 289 0.0 0.0 0.12 0.53 0.53 100 1004.6
20210622030504 70 289 0.0 0.0 0.12 0.53 0.53 100 1004.8
20210622024504 70 289 0.0 0.0 0.12 0.53 0.53 99 1004.9
20210622024004 70 289 0.0 0.0 0.12 0.53 0.53 99 1005.1
20210622023504 71 289 0.0 2.0 0.12 0.53 0.53 99 1005.3
20210622022004 72 270 10.0 16.0 0.04 0.45 0.45 100 1006.4
20210622021504 72 296 3.0 9.0 0.00 0.41 0.41 100 1006.0
20210622020004 72 299 7.0 6.0 0.00 0.41 0.41 100 1004.9
20210622015504 72 236 0.0 0.0 0.00 0.41 0.41 100 1004.1
20210622014503 72 236 0.0 0.0 0.00 0.41 0.41 100 1004.0
20210622013004 72 236 0.0 0.0 0.00 0.41 0.41 99 1003.7
20210622011504 72 235 0.0 0.0 0.00 0.41 0.41 99 1003.5
20210622011004 72 234 0.0 0.0 0.00 0.41 0.41 99 1003.5
20210622005504 72 234 0.0 0.0 0.00 0.41 0.41 99 1003.6
20210622005004 72 234 0.0 0.0 0.00 0.41 0.41 99 1003.8
20210622003504 72 234 0.0 0.0 0.00 0.41 0.41 99 1003.5
20210622002504 72 234 0.0 2.0 0.00 0.41 0.41 99 1003.8
20210622002005 73 234 0.0 2.0 0.00 0.41 0.41 99 1003.8
20210622001005 72 234 0.0 0.0 0.00 0.41 0.41 99 1003.8
20210621235504 72 234 0.0 0.0 0.00 0.41 0.41 99 1003.4
20210621234004 72 234 0.0 0.0 0.00 0.41 0.41 99 1002.7
20210621233004 72 234 0.0 0.0 0.00 0.41 0.41 99 1002.7
20210621230503 72 234 0.0 2.0 0.02 0.41 0.41 98 1003.0
20210621230004 72 234 0.0 2.0 0.12 0.41 0.41 98 1002.9
20210621225004 73 290 2.0 6.0 0.41 0.41 0.41 98 1003.2
20210621223504 73 264 0.0 0.0 0.41 0.41 0.41 97 1003.6
20210621222504 73 154 0.0 3.0 0.41 0.41 0.41 97 1003.5
20210621221504 73 150 0.0 2.0 0.41 0.41 0.41 96 1003.3
20210621221005 73 150 5.0 10.0 0.40 0.40 0.40 95 1003.7
20210621220504 73 150 3.0 6.0 0.39 0.39 0.39 94 1003.7
20210621220004 75 301 4.0 7.0 0.29 0.29 0.29 89 1003.9
20210621215503 79 319 5.0 14.0 0.16 0.16 0.16 81 1004.1
20210621215005 84 281 26.0 37.0 0.00 0.00 0.00 74 1004.3
20210621214004 85 185 0.0 2.0 0.00 0.00 0.00 73 1002.3
20210621213004 85 185 0.0 2.0 0.00 0.00 0.00 72 1002.1
20210621212504 85 185 0.0 2.0 0.00 0.00 0.00 72 1002.1
20210621210504 87 185 0.0 2.0 0.00 0.00 0.00 71 1001.5
20210621205004 88 185 0.0 2.0 0.00 0.00 0.00 69 1001.5
20210621204504 88 185 1.0 3.0 0.00 0.00 0.00 67 1001.6
20210621203004 88 214 1.0 6.0 0.00 0.00 0.00 67 1001.5
20210621202504 88 235 2.0 9.0 0.00 0.00 0.00 68 1001.7
20210621201504 89 173 3.0 6.0 0.00 0.00 0.00 67 1002.1
20210621200504 89 204 1.0 3.0 0.00 0.00 0.00 66 1002.3
20210621200004 89 181 1.0 3.0 0.00 0.00 0.00 67 1002.4
20210621193504 89 280 1.0 7.0 0.00 0.00 0.00 68 1003.0
20210621193004 88 228 3.0 7.0 0.00 0.00 0.00 67 1003.1
20210621192504 89 193 1.0 2.0 0.00 0.00 0.00 68 1003.2
20210621191503 89 168 2.0 7.0 0.00 0.00 0.00 69 1003.1
20210621190504 88 173 1.0 3.0 0.00 0.00 0.00 71 1003.0
20210621190004 88 200 1.0 6.0 0.00 0.00 0.00 71 1003.1
20210621185504 88 179 3.0 6.0 0.00 0.00 0.00 70 1003.0
20210621183505 87 70 0.0 3.0 0.00 0.00 0.00 71 1003.0
20210621183005 88 67 2.0 3.0 0.00 0.00 0.00 67 1003.0
20210621181504 88 149 2.0 3.0 0.00 0.00 0.00 69 1003.3
20210621180504 89 151 1.0 3.0 0.00 0.00 0.00 67 1003.5
20210621180006 89 151 4.0 7.0 0.00 0.00 0.00 66 1003.6